Zurück zum Katalog

YAOGAN-43 03C

AktivMilitärVLEO
NORAD 61619·PAYLOAD·🇨🇳 China

Gestartet Oct 23, 2024 von Xichang Satellite Launch Center

Loading…

Nächste Überflüge (nächste 24 Stunden)

TLE

AktuellSource: Space-Track

Epoche: Sep 14, 2026, 14:21 UTC

1 61619U 24190C   26257.59826992  .00002124  00000-0  89626-4 0  9995
2 61619  34.9973 355.7455 0005582  68.0936 292.0372 15.23016154105465

Verfolge YAOGAN-43 03C in Echtzeit mit AllMySat

Download on the App Store